[[{"header":{"parameterUnit":"m.s-1","parameterCategory":1,"la1":30.2991,"la2":30.254,"lo1":-89.0895,"lo2":-89.0444,"dy":0.0017,"dx":0.0017,"nx":28,"ny":28,"refTime":"2024-10-03T21:00:00:Z","depth":0,"parameterNumber":2,"parameterNumberName":"U-component_of_WINDS"},"data":[0,0,0,0,0,0,0,0,0,0,0,0,0,0,0,0,0,0,0,0,0,0,0,0,0,0,0,0,0,0,0,0,0,0,0,0,0,0,0,0,0,0,0,0,0,0,0,0,0,0,0,0,0,0,0,0,0,0,-2.8616,-2.8618,0,-2.8791,-2.8793,-2.8795,-2.8781,-2.8779,-2.8776,-2.8774,-2.8957,-2.8965,-2.8972,0,0,0,0,0,0,0,0,0,0,0,0,0,-2.8272,-2.8278,-2.8616,-2.8618,-2.862,-2.8791,-2.8794,-2.8796,-2.8782,-2.8779,-2.8775,-2.8772,-2.8955,-2.8964,-2.8973,0,0,0,0,0,0,0,0,0,0,0,0,0,-2.8432,-2.828,-2.8615,-2.8634,-2.8637,-2.8791,-2.8794,-2.8797,-2.8783,-2.8779,-2.8775,-2.8771,-2.8952,-2.8963,-2.8974,-2.9122,0,0,-2.9007,-2.9012,0,0,0,0,0,0,0,0,-2.8423,-2.8445,-2.8629,-2.8633,-2.8637,-2.876,-2.874,-2.8906,-2.8784,-2.8728,-2.8774,-2.8769,-2.8895,-2.8911,-2.8953,-2.913,-2.9138,-2.9008,-2.9015,-2.902,-2.9023,0,0,0,0,0,0,0,-2.8412,-2.8437,-2.8685,-2.8632,-2.8636,-2.8634,-2.8653,-2.8771,-2.8832,-2.8732,-2.8731,-2.8752,-2.8897,-2.8942,-2.8957,-2.9141,-2.9008,-2.9018,-2.9025,-2.9029,-2.945,-2.9454,0,0,0,0,0,0,-2.8396,-2.8428,-2.868,-2.8691,-2.8518,-2.8644,-2.8664,-2.8725,-2.883,-2.8843,-2.8755,-2.8751,-2.8925,-2.8944,-2.8963,-2.9144,-2.902,-2.903,-2.9037,-2.9445,-2.9451,-2.9456,0,0,0,0,0,0,-2.8389,-2.8419,-2.8673,-2.8559,-2.8591,-2.8654,-2.8722,-2.873,-2.8776,-2.8848,-2.8859,-2.879,-2.8923,-2.8948,-2.9082,-2.915,-2.9035,-2.9045,-2.944,-2.9447,-2.9453,-2.9507,0,0,0,0,0,0,-2.8379,-2.8416,-2.8472,-2.856,-2.8597,-2.8788,-2.8726,-2.8737,-2.8794,-2.879,-2.8884,-2.8895,-2.8921,-2.9066,-2.9093,-2.9163,-2.9054,-2.9434,-2.9443,-2.9451,-2.9499,-2.9514,-2.9528,0,0,0,0,0,-2.8367,-2.8481,-2.8475,-2.8506,-2.8669,-2.8792,-2.8813,-2.884,-2.88,-2.8857,-2.8904,-2.8892,-2.9138,-2.908,-2.9111,-2.9185,-2.943,-2.944,-2.945,-2.9493,-2.9511,-2.9527,0,0,0,0,0,0,-2.84,-2.8493,-2.8487,-2.8633,-2.8705,-2.8789,-2.8863,-2.8859,-2.8944,-2.8936,-2.8967,-2.8988,-2.9124,-2.9168,-2.9101,-2.9334,-2.9279,-2.9296,-2.9301,-2.9319,-2.9333,-2.932,-2.9063,0,0,0,0,0,-2.8424,-2.8516,-2.8592,-2.8714,-2.8749,-2.88,-2.8855,-2.8869,-2.8944,-2.8975,-2.9031,-2.9106,-2.92,-2.9262,-2.9352,-2.9505,-2.9526,-2.9571,-2.9586,-2.9597,-2.9612,-2.9696,-2.9718,-2.9489,-2.9489,-2.9489,0,0,-2.8476,-2.8538,-2.8594,-2.8722,-2.8779,-2.8874,-2.8825,-2.8928,-2.8999,-2.8991,-2.9121,-2.9165,-2.9251,-2.9395,-2.9462,-2.9436,-2.9679,-2.961,-2.9618,-2.9627,-2.9709,-2.9731,-2.975,-2.9496,-2.9495,-2.9494,0,0,-2.8618,-2.8674,-2.8781,-2.8839,-2.8925,-2.8958,-2.8984,-2.9069,-2.9098,-2.9229,-2.9225,-2.931,-2.9471,-2.9533,-2.9585,-2.9751,-2.9744,-2.9779,-2.9854,-2.9937,-2.9955,-2.9971,-3.0031,-3.0052,-2.9793,-2.9794,-2.9794,0,-2.8672,-2.8814,-2.8837,-2.8941,-2.8998,-2.8993,-2.9103,-2.9158,-2.9271,-2.9311,-2.928,-2.9482,-2.954,-2.9699,-2.9739,-2.9781,-2.9813,-2.9769,-2.995,-2.9966,-2.9982,-3.004,-3.0062,-2.9797,-2.9797,-2.9797,-2.9796,0,-2.8876,-2.8974,-2.9051,-2.9158,-2.9223,-2.933,-2.9371,-2.9434,-2.9443,-2.9479,-2.9613,-2.9681,-2.9786,-2.9824,-2.9834,-2.9985,-2.9967,-2.9943,-2.9888,-3.0007,-3.0062,-3.0084,-2.9803,-2.9801,-2.98,-2.9799,0,0,-2.9045,-2.9163,-2.9191,-2.924,-2.9335,-2.9412,-2.9518,-2.9619,-2.9674,-2.9751,-2.9842,-2.9978,-2.9956,-3.0016,-3.0032,-3.0104,-3.0232,-3.0072,-3.0074,-3.01,-3.0405,-3.0423,-3.0448,-3.0228,-3.0232,-3.0235,-3.0398,0,-2.9198,-2.9385,-2.941,-2.9576,-2.9668,-2.9665,-2.9757,-2.9826,-2.9863,-2.9947,-2.9988,-3.0085,-3.0048,-3.0084,-3.0155,-3.0202,-3.0294,-3.019,-3.0314,-3.0318,-3.0294,-3.0477,-3.0497,-3.0647,-3.0419,-3.0423,-3.0426,0,-2.9402,-2.9483,-2.9659,-2.9741,-2.978,-2.9863,-2.9958,-3.0038,-3.0116,-3.0138,-3.0204,-3.0211,-3.0323,-3.0262,-3.0417,-3.0346,-3.0398,-3.0428,-3.0435,-3.0449,-3.038,-3.0497,-3.0695,-3.0718,-3.0459,-3.0457,-3.0454,0,-2.9509,-2.9663,-2.9788,-2.983,-2.9929,-2.9987,-3.0031,-3.0105,-3.0164,-3.0248,-3.0287,-3.0382,-3.0435,-3.0509,-3.0542,-3.0495,-3.0696,-3.0638,-3.0718,-3.0718,-3.0762,-3.0759,-3.0973,-3.0793,-3.0793,-3.0792,-3.0792,0,-2.9678,-2.9786,-2.9838,-2.9915,-3.0036,-3.0063,-3.0182,-3.0224,-3.029,-3.0377,-3.0379,-3.0461,-3.0499,-3.0586,-3.0613,-3.0738,-3.0761,-3.0783,-3.0789,-3.0784,-3.0781,-3.0819,-3.081,-3.0798,-3.0797,-3.0796,-3.0795,0,-2.9819,-2.9858,-2.9994,-3.0076,-3.0099,-3.0185,-3.0256,-3.0331,-3.0366,-3.0475,-3.0503,-3.0559,-3.0662,-3.0702,-3.0828,-3.0846,-3.099,-3.0988,-3.0964,-3.0966,-3.1045,-3.1037,-3.1292,-3.1327,-3.1123,-3.1125,-3.1126,0,-2.9925,-3.0008,-3.0098,-3.0155,-3.0201,-3.0293,-3.0354,-3.0384,-3.0447,-3.0542,-3.0606,-3.0708,-3.0792,-3.0957,-3.101,-3.1107,-3.1107,-3.1189,-3.1122,-3.1114,-3.111,-3.1105,-3.1114,-3.1203,-3.1205,-3.1206,-3.1208,0,-3.0109,-3.0124,-3.021,-3.0304,-3.0375,-3.045,-3.0523,-3.057,-3.0611,-3.0682,-3.0787,-3.0851,-3.0979,-3.1082,-3.1181,-3.1228,-3.1226,-3.1228,-3.1252,-3.1248,-3.1232,-3.1243,-3.0999,-3.1223,-3.1221,-3.122,-3.1219,-3.1219,-3.0237,-3.0311,-3.0386,-3.0482,-3.0539,-3.0608,-3.0682,-3.0727,-3.0814,-3.092,-3.0932,-3.1045,-3.1122,-3.1255,-3.1306,-3.1395,-3.1374,-3.1408,-3.1417,-3.1426,-3.1432,-3.1216,-3.1413,-3.1413,-3.1413,-3.1412,-3.1412,0,-3.0423,-3.047,-3.0558,-3.066,-3.0735,-3.0725,-3.0805,-3.087,-3.0968,-3.1039,-3.1121,-3.1242,-3.134,-3.1401,-3.1501,-3.1561,-3.1562,-3.1586,-3.1583,-3.1594,-3.1445,-3.1415,-3.1583,-3.1583,-3.1583,-3.1583,-3.1583,-3.1583,-3.0528,-3.0652,-3.0676,-3.0829,-3.0876,-3.0986,-3.1033,-3.1096,-3.1153,-3.1287,-3.1369,-3.1407,-3.1474,-3.1579,-3.167,-3.1685,-3.1722,-3.1748,-3.1762,-3.1622,-3.1604,-3.1588,-3.1559,-3.1756,-3.1756,-3.1904,-3.1905,-3.1906]},{"header":{"parameterUnit":"m.s-1","parameterCategory":1,"la1":30.2991,"la2":30.254,"lo1":-89.0895,"lo2":-89.0444,"dy":0.0017,"dx":0.0017,"nx":28,"ny":28,"refTime":"2024-10-03T21:00:00:Z","depth":0,"parameterNumber":3,"parameterNumberName":"V-component_of_WINDS"},"data":[0,0,0,0,0,0,0,0,0,0,0,0,0,0,0,0,0,0,0,0,0,0,0,0,0,0,0,0,0,0,0,0,0,0,0,0,0,0,0,0,0,0,0,0,0,0,0,0,0,0,0,0,0,0,0,0,0,0,-2.581,-2.5811,0,-2.585,-2.5851,-2.5851,-2.5822,-2.582,-2.5819,-2.5818,-2.5859,-2.5862,-2.5864,0,0,0,0,0,0,0,0,0,0,0,0,0,-2.5709,-2.5711,-2.581,-2.5811,-2.5811,-2.585,-2.5851,-2.5851,-2.5822,-2.582,-2.5819,-2.5817,-2.5859,-2.5861,-2.5864,0,0,0,0,0,0,0,0,0,0,0,0,0,-2.5751,-2.5711,-2.581,-2.5801,-2.5801,-2.585,-2.5851,-2.5852,-2.5822,-2.582,-2.5818,-2.5817,-2.5858,-2.5861,-2.5865,-2.5925,0,0,-2.5875,-2.5877,0,0,0,0,0,0,0,0,-2.5749,-2.5755,-2.5802,-2.5802,-2.5802,-2.5829,-2.583,-2.5876,-2.5823,-2.5814,-2.5818,-2.5816,-2.5851,-2.5855,-2.5867,-2.5927,-2.5929,-2.5876,-2.5878,-2.5879,-2.588,0,0,0,0,0,0,0,-2.5746,-2.5753,-2.5826,-2.5803,-2.5803,-2.5795,-2.5799,-2.5839,-2.5843,-2.5815,-2.5813,-2.5818,-2.585,-2.5863,-2.5867,-2.5929,-2.5875,-2.5879,-2.5881,-2.5882,-2.6042,-2.6044,0,0,0,0,0,0,-2.5744,-2.5751,-2.5825,-2.5827,-2.577,-2.5799,-2.5803,-2.5822,-2.5842,-2.5844,-2.5819,-2.5816,-2.5858,-2.5863,-2.5869,-2.5941,-2.5879,-2.5882,-2.5884,-2.6039,-2.6042,-2.6044,0,0,0,0,0,0,-2.5742,-2.5751,-2.5823,-2.5789,-2.5797,-2.5803,-2.5824,-2.5824,-2.5837,-2.5846,-2.5847,-2.5832,-2.5857,-2.5864,-2.5911,-2.5942,-2.5884,-2.5887,-2.6037,-2.604,-2.6043,-2.6086,0,0,0,0,0,0,-2.5739,-2.575,-2.5773,-2.5789,-2.5799,-2.5865,-2.5826,-2.5826,-2.5843,-2.5839,-2.5858,-2.5859,-2.5856,-2.5906,-2.5915,-2.5946,-2.589,-2.6034,-2.6038,-2.6042,-2.6082,-2.609,-2.6098,0,0,0,0,0,-2.5735,-2.5783,-2.5774,-2.5783,-2.5828,-2.5867,-2.5873,-2.5868,-2.5846,-2.5869,-2.5875,-2.5859,-2.5937,-2.5911,-2.5921,-2.5953,-2.6032,-2.6037,-2.6042,-2.6078,-2.6089,-2.6097,0,0,0,0,0,0,-2.5771,-2.5785,-2.5775,-2.583,-2.5848,-2.5862,-2.5891,-2.5879,-2.5903,-2.5899,-2.5892,-2.5896,-2.5946,-2.5954,-2.5925,-2.6013,-2.5981,-2.5988,-2.6006,-2.6016,-2.6023,-2.602,-2.5893,0,0,0,0,0,-2.5785,-2.5815,-2.5826,-2.5874,-2.5883,-2.5885,-2.5902,-2.5897,-2.5915,-2.5922,-2.5931,-2.5949,-2.5978,-2.5997,-2.6024,-2.6083,-2.6087,-2.611,-2.6118,-2.6124,-2.613,-2.6162,-2.6173,-2.606,-2.606,-2.606,0,0,-2.5814,-2.5826,-2.5846,-2.5881,-2.5894,-2.5925,-2.5892,-2.5927,-2.595,-2.5927,-2.5973,-2.598,-2.6,-2.6053,-2.6077,-2.6062,-2.6162,-2.613,-2.6135,-2.6138,-2.6168,-2.6179,-2.6188,-2.6064,-2.6063,-2.6062,0,0,-2.5884,-2.5896,-2.5937,-2.595,-2.597,-2.5972,-2.5982,-2.5998,-2.6002,-2.6047,-2.6031,-2.6059,-2.6109,-2.6124,-2.6138,-2.6214,-2.62,-2.6223,-2.6264,-2.6295,-2.6304,-2.6311,-2.6339,-2.6349,-2.6229,-2.6229,-2.6229,0,-2.5918,-2.5965,-2.5959,-2.5996,-2.6012,-2.5993,-2.6034,-2.6047,-2.6075,-2.6087,-2.6069,-2.6131,-2.6143,-2.62,-2.6218,-2.623,-2.6242,-2.6221,-2.6303,-2.6311,-2.6318,-2.6344,-2.6354,-2.6231,-2.6231,-2.6231,-2.6231,0,-2.6006,-2.6039,-2.607,-2.6097,-2.6117,-2.6155,-2.6155,-2.6176,-2.6169,-2.6173,-2.622,-2.6233,-2.6263,-2.6276,-2.627,-2.6332,-2.6322,-2.6304,-2.6272,-2.6331,-2.6356,-2.6366,-2.6235,-2.6234,-2.6234,-2.6233,0,0,-2.6099,-2.6123,-2.6134,-2.6147,-2.6168,-2.6193,-2.6231,-2.626,-2.6278,-2.6297,-2.6329,-2.6372,-2.6355,-2.6371,-2.6367,-2.6394,-2.6454,-2.6373,-2.6373,-2.6387,-2.6524,-2.6537,-2.6549,-2.6445,-2.6447,-2.6448,-2.6522,0,-2.617,-2.6236,-2.6232,-2.6294,-2.6325,-2.6307,-2.634,-2.6357,-2.6361,-2.6388,-2.6393,-2.6423,-2.6399,-2.6408,-2.6435,-2.6441,-2.6481,-2.6436,-2.6475,-2.6476,-2.6471,-2.6562,-2.6576,-2.6645,-2.6532,-2.6533,-2.6534,0,-2.6262,-2.6285,-2.635,-2.6367,-2.6379,-2.6409,-2.6436,-2.6461,-2.648,-2.6481,-2.6499,-2.649,-2.6529,-2.6496,-2.6549,-2.6518,-2.6534,-2.654,-2.6542,-2.6546,-2.6509,-2.6568,-2.6667,-2.6678,-2.6549,-2.6548,-2.6547,0,-2.6324,-2.6371,-2.6416,-2.6427,-2.6448,-2.6469,-2.6478,-2.6495,-2.6513,-2.6536,-2.6547,-2.6575,-2.659,-2.6611,-2.661,-2.6586,-2.6665,-2.6631,-2.6667,-2.6667,-2.6684,-2.6683,-2.6788,-2.6694,-2.6694,-2.6694,-2.6694,0,-2.6403,-2.6444,-2.6444,-2.6472,-2.6517,-2.6512,-2.6557,-2.6564,-2.6579,-2.6608,-2.6595,-2.6622,-2.6619,-2.6647,-2.6647,-2.6691,-2.6698,-2.67,-2.67,-2.6702,-2.6701,-2.6712,-2.6707,-2.6697,-2.6696,-2.6696,-2.6695,0,-2.648,-2.6481,-2.6529,-2.6545,-2.655,-2.6582,-2.6596,-2.6622,-2.6625,-2.6662,-2.6671,-2.6676,-2.6709,-2.671,-2.6747,-2.6746,-2.6801,-2.6795,-2.6794,-2.6793,-2.6829,-2.6826,-2.6944,-2.6959,-2.6856,-2.6857,-2.6858,0,-2.653,-2.6561,-2.658,-2.6599,-2.6609,-2.6639,-2.6657,-2.6654,-2.6673,-2.6697,-2.6721,-2.6752,-2.6776,-2.6829,-2.6836,-2.6865,-2.6859,-2.6899,-2.6864,-2.6865,-2.686,-2.6859,-2.6862,-2.6906,-2.6907,-2.6908,-2.6909,0,-2.662,-2.662,-2.6646,-2.6674,-2.6696,-2.6717,-2.6736,-2.6752,-2.6751,-2.6774,-2.6807,-2.6826,-2.6864,-2.6895,-2.6922,-2.6932,-2.6921,-2.692,-2.693,-2.6932,-2.6931,-2.6932,-2.6813,-2.6917,-2.6916,-2.6916,-2.6915,-2.6915,-2.6686,-2.6712,-2.673,-2.676,-2.6774,-2.6793,-2.6819,-2.6826,-2.6853,-2.6883,-2.688,-2.6917,-2.6935,-2.6971,-2.6983,-2.7012,-2.6998,-2.7012,-2.7016,-2.702,-2.7024,-2.6926,-2.7017,-2.7017,-2.7016,-2.7016,-2.7016,0,-2.6775,-2.6786,-2.6813,-2.6841,-2.6865,-2.6852,-2.6873,-2.6894,-2.6926,-2.6944,-2.6969,-2.7007,-2.7037,-2.7047,-2.7076,-2.7098,-2.7093,-2.7106,-2.7104,-2.7107,-2.7034,-2.7023,-2.7109,-2.7109,-2.7109,-2.7109,-2.7109,-2.7109,-2.6824,-2.6869,-2.6871,-2.6923,-2.6933,-2.6969,-2.6982,-2.6999,-2.7013,-2.7056,-2.7082,-2.7088,-2.7103,-2.7133,-2.7161,-2.7163,-2.7174,-2.7189,-2.7189,-2.7121,-2.7112,-2.7103,-2.7092,-2.7192,-2.7192,-2.726,-2.726,-2.7261]}]]